www.pogodaiklimat.ru

Погода и климат >> Архив погоды >> Россия >> Архангельская область >> Остров Хейса


АРХИВ ПОГОДЫ на Острове Хейса

Время (UTC), дата Ветер
(напр.,м/с)
 
Видим.   Явления Облачность Т
(С)
Тd
(С)
f
(%)
Тe
(С)
Тes
(С)
Комфортность P
(гПа)
Po
(гПа)
Тmin
(С)
Tmax
(С)
R
(мм)
R24
(мм)
S
(см)
00 8.12 ЮВ 7
{14}
20 км позёмок {снег, метель} 9/9 540 м
[Sc]
-4.4 -5.9 89 -13 -13 тепло 995.4 992.6
03 8.12 ЮВ 11
{14}
20 км позёмок {метель} 9/4 300 м
[Sc Ac und]
-4.0 -5.4 90 -14 -14 тепло 994.3 991.4
06 8.12 В 9
{14}
20 км сильный позёмок {метель} 9/0
[Ac und]
-3.3 -4.0 95 -12 -12 тепло 992.3 989.5 0.7
09 8.12 В 10-12
{12}
20 км позёмок {метель} 9/9 480 м
[Sc]
-2.1 -2.8 95 -11 -11 тепло 990.5 987.7
12 8.12 Ю 9
{13}
20 км позёмок {метель} 9/9 480 м
[Sc]
-1.9 -2.6 95 -11 -11 тепло 990.6 987.8
15 8.12 Ю 8
{14}
20 км позёмок {метель} 9/9 480 м
[Sc]
-3.0 -4.4 90 -11 -11 тепло 992.0 989.2
18 8.12 ЮВ 6
{14}
4000 м слабый снег {метель} 10/4 300 м
[Sc As op]
-2.4 -3.0 96 -10 -10 тепло 992.6 989.8 -1.6
21 8.12 Ю 6 20 км позёмок {снег, метель} 4/4 300 м
[Sc]
-3.0 -4.3 91 -10 -10 тепло 993.8 991.0
00 9.12 ЮВ 5 4000 м слабый снег {метель} 10/3 300 м
[Sc As op]
-4.0 -5.0 93 -11 -11 тепло 994.6 991.8
03 9.12 Ю 5 20 км в посл. час снег 5/4 300 м
[Sc Ci fib]
-4.5 -5.4 93 -12 -12 тепло 994.0 991.1
06 9.12 Ю 8
{11}
20 км позёмок {снег, метель} 9/0
[Ac und]
-2.4 -3.7 91 -11 -11 тепло 994.2 991.4 0.4
09 9.12 Ю 7
{12}
20 км позёмок {метель} 9/0 1500 м
[Ac und]
-3.0 -4.3 91 -11 -11 тепло 994.9 992.1
12 9.12 Ю 4
{12}
20 км позёмок {метель} 9/0
[Ac und]
-3.9 -5.3 90 -10 -10 тепло 994.8 992.0
15 9.12 ЮВ 6
{11}
20 км позёмок {метель} 9/0
[Ac und]
-3.4 -5.1 88 -11 -11 тепло 994.1 991.2
18 9.12 ЮВ 8
{11}
20 км позёмок {метель} 10/4 800 м
[Sc Ac trans Ci fib]
-3.6 -5.5 87 -12 -12 тепло 993.0 990.2 -2.4
21 9.12 ЮВ 9-11
{12}
4000 м слабый снег {метель} 10/8 960 м
[Sc As op]
-4.1 -4.9 94 -13 -13 тепло 991.7 988.9
00 10.12 ЮВ 5
{12}
4000 м слабый снег {метель} 10/8 1020 м
[Sc As op]
-3.5 -4.2 95 -11 -11 тепло 990.4 987.5
03 10.12 З 3 20 км {снег, метель} 9/5 1000 м
[Sc Ac und]
-4.3 -4.7 97 -10 -10 тепло 989.8 987.0
06 10.12 З 2
{12}
4000 м слабый снег {метель} 10/4 1000 м
[Sc As op]
-3.6 -4.6 93 -8 -8 тепло 990.0 987.1 0.5
09 10.12 СЗ 9
{13}
20 км позёмок {снег, метель} 10/6 1000 м
[Sc Ci fib]
-6.7 -8.7 86 -16 -16 тепло 991.7 988.8
12 10.12 З 7
{14}
20 км позёмок {снег, метель} 10/4 1000 м
[Sc Ci fib]
-9.2 -12.3 78 -18 -18 тепло 993.4 990.5
15 10.12 СЗ 10
{14}
20 км позёмок {метель} 10/5 1000 м
[Sc Ci fib]
-11.1 -14.3 77 -22 -22 тепло 994.9 991.9
18 10.12 СЗ 10
{14}
4000 м метель 1/1 1000 м
[Sc]
-14.0 -17.9 72 -26 -26 по сезону 996.4 993.4 -3.5 0.5
21 10.12 СЗ 10
{14}
20 км позёмок {метель} ясно -14.6 -17.1 81 -26 -26 по сезону 998.0 995.0
00 11.12 З 9
{14}
20 км позёмок {метель} 8/0
[Ac trans Ci fib]
-15.4 -18.9 74 -27 -27 по сезону 998.5 995.5
03 11.12 З 9
{13}
20 км позёмок {метель} 5/4 1000 м
[Sc Ac trans]
-15.5 -18.7 76 -27 -27 по сезону 998.0 995.0
06 11.12 СЗ 12
{14}
4000 м слабый снег {метель} 10/5 1000 м
[Sc As op]
-14.7 -17.2 81 -27 -27 по сезону 996.3 993.4
09 11.12 З 10
{16}
4000 м слабый снег {метель} 10/0
[As op]
-14.3 -16.6 83 -26 -26 по сезону 996.0 993.0
12 11.12 СЗ 11
{16}
4000 м слабый снег {метель} 10/0
[As op]
-13.7 -17.0 76 -26 -26 по сезону 996.4 993.4
15 11.12 З 7
{15}
4000 м слабый снег {метель} 10/0
[As op]
-14.0 -18.3 70 -24 -24 по сезону 995.1 992.1
18 11.12 ЮЗ 6
{15}
20 км позёмок {снег, метель} 9/0
[Ac und]
-12.9 -15.8 79 -22 -22 тепло 992.8 989.9 -13.4 1
21 11.12 В 1 4000 м слабый ливневой снег {метель} 9/8 930 м
[Cb cap Ac und]
-12.0 -14.1 84 -14 -14 тепло 989.6 986.7
00 12.12 В 2 4000 м слабый ливневой снег {метель} 9/9 450 м
[Cb cap Ac und]
-10.0 -11.9 86 -15 -15 тепло 986.5 983.7
03 12.12 СВ 9
{12}
20 км сильный позёмок {ливн. осадки, метель} 5/5 300 м
[Cb cap]
-12.9 -14.8 86 -24 -24 по сезону 987.1 984.2
06 12.12 С 7
{16}
20 км позёмок {ливн. осадки, метель} ясно -15.8 -18.3 81 -26 -26 по сезону 990.8 987.9 -15.8 2
09 12.12 С 6
{13}
20 км позёмок {метель} 1/1 300 м
[Sc]
-17.7 -20.7 77 -28 -28 по сезону 993.6 990.6
12 12.12 СЗ 5
{13}
20 км позёмок {метель} ясно -18.5 -21.8 75 -28 -28 по сезону 995.5 992.5
15 12.12 СЗ 6
{11}
20 км позёмок {метель} 1/1 300 м
[Sc]
-16.1 -19.3 76 -26 -26 по сезону 996.7 993.7
18 12.12 СЗ 4
{13}
20 км {метель} 3/0
[Ac trans]
-14.6 -18.2 74 -22 -22 тепло 998.1 995.1 -12.1
21 12.12 СЗ 6 20 км позёмок {метель} 3/0
[Ac trans Ci fib]
-12.4 -15.6 77 -21 -21 тепло 998.6 995.7
00 13.12 СЗ 5
{11}
20 км позёмок {метель} 6/6 300 м
[Sc]
-11.9 -14.9 78 -20 -20 тепло 998.7 995.8
03 13.12 С 4 20 км {метель} 9/4 300 м
[Sc Ci fib]
-13.7 -16.2 81 -21 -21 тепло 998.0 995.0
06 13.12 Ю 1 20 км {метель} 8/3 300 м
[Sc Ac trans Ci fib]
-14.1 -16.4 83 -17 -17 тепло 997.0 994.0
09 13.12 В 3 20 км 4/0
[Ac trans]
-17.4 -18.5 91 -24 -24 по сезону 995.9 992.9
12 13.12 С 2 20 км 3/0
[Ac trans]
-17.4 -19.4 84 -23 -23 по сезону 995.8 992.8
15 13.12 З 2 20 км 3/0
[Ac trans]
-18.2 -20.0 86 -24 -24 по сезону 996.6 993.6
18 13.12 З 1 20 км ясно -18.0 -19.9 85 -21 -21 тепло 997.6 994.6 -13.2
21 13.12 З 2 50 км ясно -19.6 -21.5 85 -25 -25 по сезону 998.6 995.6
00 14.12 СЗ 2 20 км ясно -17.9 -19.8 85 -23 -23 по сезону 999.6 996.5
03 14.12 З 1 20 км ясно -18.1 -20.2 84 -21 -21 тепло 1000.3 997.3
06 14.12 ЮЗ 1 20 км ясно -18.4 -20.4 84 -21 -21 тепло 1001.0 998.0
09 14.12 З 1 20 км ясно -18.7 -20.7 84 -22 -22 тепло 1002.6 999.5
12 14.12 З 1 20 км ясно -19.3 -21.1 86 -22 -22 тепло 1003.9 1000.8
15 14.12 ЮЗ 2 20 км ясно -18.6 -20.7 83 -24 -24 по сезону 1004.5 1001.5
18 14.12 ЮЗ 1 20 км ясно -17.0 -19.0 84 -20 -20 тепло 1004.1 1001.1 -17.2

 

Местоположение метеостанции Остров Хейса (Архангельская область, Россия): широта 80.62 долгота 58.05 высота над уровнем моря 25 м.

В архиве по умолчанию представлена погода на Острове Хейса за последнюю неделю. Архивные данные за месяц целиком и за предыдущие месяцы, начиная с января 2011 года, Вы можете получить, выбрав интересующий диапазон дат из раскрывающегося списка и нажав кнопку "Ввод!".


*Определитесь, кто Вы:
робот инопланетянин человек

Внимание! Время в таблицах - всемирное. Для получения местного времени необходимо прибавить поправку, которая на Острове Хейса равна 3 ч.

Смотрите также архив погоды в соседних городах и на ближайших метеорологических станциях:

Погода на Острове Визе (Красноярский край, Россия) (382 км)
Погода на Мысе Желания (Архангельская область, Россия) (466 км)
Погода в Kvitoya (Норвегия) (495 км)
Погода в Karl XII Oya (Норвегия) (590 км)
Погода в Kongsoya (Норвегия) (598 км)
Погода на Острове Уединения (Красноярский край, Россия) (610 км)
Погода на Острове Голомянный (Красноярский край, Россия) (626 км)
Погода в Edgeoya (Норвегия) (751 км)
Погода на Островах Известий ЦИК (Красноярский край, Россия) (754 км)
Погода в Verlegenhuken (Норвегия) (766 км)

Пояснения к столбцам:

Ветер - указаны скорость ветра в м/с - средняя за 10 мин, порывы в срок и между сроками (в фигурных скобках) и направление, откуда дует ветер: С - северный, СВ - северо-восточный, В - восточный, ЮВ - юго-восточный, Ю - южный, ЮЗ - юго-западный, З - западный, СЗ - северо-западный.
Видимость - горизонтальная дальность видимости в метрах или километрах. При видимости от 1 до 10 км при отсутствии осадков обычно наблюдается дымка, при ухудшении видимости до 1 км и менее - туман. В сухую погоду видимость может ухудшаться дымом, пылью или мглою.
Явления - указаны атмосферные явления, наблюдавшиеся в срок или в последний час перед сроком; фигурными скобками обозначены явления, наблюдавшиеся между сроками (за 1-3 часа до срока); квадратными скобками обозначены град или гололедные отложения с указанием их диаметра в мм.
Облачность - указаны через наклонную черту общая и нижняя облачность в баллах и высота нижней границы облаков в метрах; квадратными скобками обозначены формы облаков: Ci - перистые, Cs - перисто-слоистые, Cc - перисто-кучевые, Ac - высококучевые, As - высокослоистые, Sc - слоисто-кучевые, Ns - слоисто-дождевые, Cu - кучевые, Cb - кучево-дождевые. Подробнее классификацию облаков см. в Атласе облаков (PDF).
T - Температура воздуха - температура, измеренная на высоте 2 м над землей.
Td - Температура точки росы - температура, при понижении до которой содержащийся в воздухе водяной пар достигнет насыщения.
f - Относительная влажность воздуха - влажноcть воздуха, измеренная на высоте 2 м над землей.
Te - Эффективная температура - температура, которую ощущает одетый по сезону человек в тени. Характеристика душности погоды. При расчете учитывается влияние влажности воздуха и скорости ветра на теплоощущения человека.
Tes - Эффективная температура на солнце - температура, которую ощущает человек, с поправкой на солнечный нагрев. Характеристика знойности погоды. Зависит от высоты солнца над горизонтом, облачности и скорости ветра. Ночью, в пасмурную погоду, а также при ветре 12 м/с и более поправка равна нулю.
P - Атмосферное давление - приведенное к уровню моря атмосферное давление.
Po - Атмосферное давление - измеренное на уровне метеостанции атмосферное давление.
Tmin - Минимальная температура - минимум температуры воздуха на высоте 2 м над землей.
Tmax - Максимальная температура - максимум температуры воздуха на высоте 2 м над землей.
R - Количество осадков - Количество выпавших осадков за период времени, мм. При наведении курсора мыши на число - период времени, за который выпало указанное количество осадков.
R24 - Количество осадков - Количество выпавших осадков за 24 часа, мм.
S - Снежный покров - Высота снежного покрова, см. При наведении курсора мыши на число - состояние снежного покрова и степень покрытия местности в баллах.